Location: Newark
(55.8871°S, 37.4681°E)
Time: 19:47:44
(UTC+00:00)

Envisat - Visible Passes

Search period start: 15 October 2019 00:00
Search period end: 25 October 2019 00:00
Orbit: 764 x 766 km, 98.1° (Epoch: 15 October)

Date Brightness Start Highest point End Pass type
(mag) Time Alt. Az. Time Alt. Az. Time Alt. Az.
15 Oct 6.0 01:31:12 10° E 01:34:52 20° SE 01:38:32 10° S visible
15 Oct 3.1 16:48:11 10° SSE 16:53:24 85° ENE 16:58:34 10° NNW visible
15 Oct 5.6 18:27:54 10° S 18:31:54 23° SW 18:35:52 10° WNW visible
16 Oct 6.3 00:56:28 10° ESE 00:58:39 13° SE 01:00:50 10° SSE visible
16 Oct 4.7 17:50:44 10° S 17:55:28 37° WSW 18:00:11 10° NW visible
16 Oct 6.4 19:32:08 10° SSW 19:33:12 11° SW 19:34:15 10° SW visible
17 Oct 3.6 17:13:45 10° SSE 17:18:53 65° WSW 17:23:58 10° NNW visible
17 Oct 6.0 18:53:52 10° S 18:57:03 17° SW 19:00:13 10° W visible
18 Oct 6.1 01:20:26 10° E 01:23:45 17° SE 01:27:04 10° S visible
18 Oct 5.4 18:16:30 10° S 18:20:45 26° SW 18:24:59 10° WNW visible
19 Oct 6.5 00:46:08 10° ESE 00:47:35 11° SE 00:49:02 10° SSE visible
19 Oct 4.4 17:39:23 10° S 17:44:17 44° WSW 17:49:08 10° NW visible
19 Oct 6.3 19:20:11 10° SSW 19:22:08 12° SW 19:24:05 10° WSW visible
20 Oct 3.3 17:02:27 10° SSE 17:07:39 77° WSW 17:12:46 10° NNW visible
20 Oct 5.9 18:42:24 10° S 18:45:57 19° SW 18:49:29 10° W visible
21 Oct 6.2 01:09:44 10° E 01:12:39 15° SE 01:15:33 10° SSE visible
21 Oct 5.1 18:05:07 10° S 18:09:36 30° WSW 18:14:03 10° WNW visible
22 Oct 4.1 17:28:03 10° S 17:33:04 51° WSW 17:38:02 10° NW visible
22 Oct 6.2 19:08:30 10° SSW 19:11:03 14° SW 19:13:36 10° WSW visible
23 Oct 5.7 18:30:56 10° S 18:34:49 22° SW 18:38:40 10° W visible
24 Oct 6.3 00:59:09 10° ESE 01:01:33 13° SE 01:03:58 10° SSE visible
24 Oct 4.9 17:53:45 10° S 17:58:25 35° WSW 18:03:03 10° NW visible
24 Oct 6.6 19:35:50 10° SW 19:36:05 10° SW 19:36:21 10° SW visible
